[[{"header":{"parameterUnit":"m.s-1","parameterCategory":1,"la1":30.2991,"la2":30.254,"lo1":-89.0895,"lo2":-89.0444,"dy":0.0017,"dx":0.0017,"nx":28,"ny":28,"refTime":"2024-05-07T21:00:00:Z","depth":0,"parameterNumber":2,"parameterNumberName":"U-component_of_WINDS"},"data":[0,0,0,0,0,0,0,0,0,0,0,0,0,0,0,0,0,0,0,0,0,0,0,0,0,0,0,0,0,0,0,0,0,0,0,0,0,0,0,0,0,0,0,0,0,0,0,0,0,0,0,0,0,0,0,0,0,0,-1.2517,-1.2517,0,-1.253,-1.253,-1.253,-1.2521,-1.252,-1.252,-1.252,-1.2532,-1.2533,-1.2534,0,0,0,0,0,0,0,0,0,0,0,0,0,-1.2486,-1.2486,-1.2517,-1.2517,-1.2518,-1.253,-1.253,-1.253,-1.2521,-1.252,-1.252,-1.2519,-1.2532,-1.2533,-1.2534,0,0,0,0,0,0,0,0,0,0,0,0,0,-1.2499,-1.2486,-1.2517,-1.2514,-1.2514,-1.253,-1.253,-1.253,-1.2521,-1.252,-1.252,-1.2519,-1.2532,-1.2533,-1.2534,-1.2553,0,0,-1.2537,-1.2538,0,0,0,0,0,0,0,0,-1.2498,-1.25,-1.2515,-1.2515,-1.2514,-1.2523,-1.2524,-1.2538,-1.2521,-1.2518,-1.252,-1.2519,-1.253,-1.2531,-1.2535,-1.2554,-1.2554,-1.2537,-1.2538,-1.2539,-1.2539,0,0,0,0,0,0,0,-1.2497,-1.2499,-1.2522,-1.2515,-1.2515,-1.2513,-1.2514,-1.2526,-1.2527,-1.2519,-1.2518,-1.252,-1.253,-1.2534,-1.2535,-1.2554,-1.2537,-1.2538,-1.2539,-1.2539,-1.259,-1.259,0,0,0,0,0,0,-1.2497,-1.2499,-1.2522,-1.2523,-1.2505,-1.2514,-1.2515,-1.2521,-1.2527,-1.2528,-1.252,-1.2519,-1.2532,-1.2534,-1.2535,-1.2558,-1.2538,-1.254,-1.254,-1.2589,-1.259,-1.2591,0,0,0,0,0,0,-1.2496,-1.2499,-1.2521,-1.2511,-1.2513,-1.2515,-1.2522,-1.2522,-1.2526,-1.2528,-1.2529,-1.2524,-1.2532,-1.2534,-1.2549,-1.2558,-1.254,-1.2541,-1.2588,-1.2589,-1.259,-1.2603,0,0,0,0,0,0,-1.2495,-1.2498,-1.2506,-1.2511,-1.2514,-1.2534,-1.2522,-1.2522,-1.2527,-1.2526,-1.2532,-1.2532,-1.2531,-1.2547,-1.255,-1.2559,-1.2542,-1.2587,-1.2589,-1.259,-1.2602,-1.2604,-1.2607,0,0,0,0,0,-1.2494,-1.2509,-1.2506,-1.2509,-1.2523,-1.2535,-1.2537,-1.2535,-1.2528,-1.2535,-1.2537,-1.2532,-1.2557,-1.2549,-1.2552,-1.2562,-1.2587,-1.2588,-1.259,-1.2601,-1.2604,-1.2607,0,0,0,0,0,0,-1.2504,-1.2509,-1.2506,-1.2523,-1.2529,-1.2533,-1.2542,-1.2539,-1.2546,-1.2545,-1.2543,-1.2544,-1.256,-1.2562,-1.2553,-1.2581,-1.2571,-1.2573,-1.2578,-1.2581,-1.2583,-1.2582,-1.2543,0,0,0,0,0,-1.2509,-1.2518,-1.2522,-1.2536,-1.2539,-1.254,-1.2546,-1.2544,-1.255,-1.2552,-1.2555,-1.2561,-1.257,-1.2576,-1.2584,-1.2603,-1.2604,-1.2611,-1.2613,-1.2615,-1.2617,-1.2627,-1.263,-1.2596,-1.2596,-1.2596,0,0,-1.2517,-1.2521,-1.2527,-1.2539,-1.2543,-1.2553,-1.2542,-1.2553,-1.256,-1.2554,-1.2568,-1.257,-1.2577,-1.2593,-1.2601,-1.2596,-1.2627,-1.2617,-1.2619,-1.2619,-1.2629,-1.2632,-1.2635,-1.2597,-1.2597,-1.2596,0,0,-1.2538,-1.2542,-1.2555,-1.2559,-1.2566,-1.2567,-1.257,-1.2575,-1.2576,-1.2591,-1.2586,-1.2595,-1.261,-1.2615,-1.262,-1.2643,-1.2639,-1.2646,-1.2658,-1.2668,-1.2671,-1.2673,-1.2681,-1.2684,-1.2648,-1.2648,-1.2648,0,-1.2548,-1.2563,-1.2562,-1.2573,-1.2578,-1.2573,-1.2585,-1.259,-1.2599,-1.2603,-1.2597,-1.2617,-1.2621,-1.2638,-1.2644,-1.2648,-1.2652,-1.2645,-1.267,-1.2673,-1.2675,-1.2682,-1.2686,-1.2649,-1.2649,-1.2649,-1.2649,0,-1.2575,-1.2585,-1.2594,-1.2603,-1.2609,-1.2621,-1.2622,-1.2629,-1.2627,-1.2628,-1.2643,-1.2648,-1.2657,-1.2662,-1.266,-1.2679,-1.2676,-1.2671,-1.2661,-1.2679,-1.2686,-1.2689,-1.265,-1.265,-1.265,-1.2649,0,0,-1.2601,-1.261,-1.2613,-1.2617,-1.2624,-1.2632,-1.2644,-1.2654,-1.2659,-1.2666,-1.2676,-1.269,-1.2685,-1.269,-1.2689,-1.2698,-1.2716,-1.2691,-1.2691,-1.2695,-1.2736,-1.274,-1.2743,-1.2713,-1.2714,-1.2714,-1.2736,0,-1.2622,-1.2642,-1.2642,-1.2661,-1.267,-1.2666,-1.2677,-1.2682,-1.2684,-1.2693,-1.2695,-1.2704,-1.2698,-1.2701,-1.2709,-1.2712,-1.2724,-1.271,-1.2722,-1.2722,-1.2719,-1.2747,-1.275,-1.277,-1.2738,-1.2739,-1.2739,0,-1.2649,-1.2656,-1.2676,-1.2682,-1.2686,-1.2695,-1.2704,-1.2712,-1.2719,-1.2719,-1.2726,-1.2724,-1.2736,-1.2726,-1.2743,-1.2734,-1.2739,-1.2741,-1.2742,-1.2742,-1.2731,-1.2747,-1.2777,-1.2779,-1.2744,-1.2743,-1.2743,0,-1.2665,-1.2681,-1.2695,-1.2698,-1.2706,-1.2712,-1.2716,-1.2722,-1.2727,-1.2735,-1.2739,-1.2748,-1.2753,-1.276,-1.2761,-1.2754,-1.2777,-1.2768,-1.2778,-1.2778,-1.2782,-1.2782,-1.2812,-1.2787,-1.2787,-1.2787,-1.2787,0,-1.2688,-1.27,-1.2702,-1.271,-1.2724,-1.2724,-1.2737,-1.274,-1.2746,-1.2755,-1.2752,-1.2761,-1.2761,-1.277,-1.2771,-1.2785,-1.2787,-1.2788,-1.2788,-1.2788,-1.2787,-1.279,-1.2788,-1.2788,-1.2788,-1.2788,-1.2788,0,-1.2709,-1.271,-1.2725,-1.2731,-1.2733,-1.2743,-1.2748,-1.2756,-1.2758,-1.277,-1.2772,-1.2775,-1.2786,-1.2787,-1.28,-1.28,-1.2816,-1.2815,-1.2814,-1.2813,-1.2823,-1.2822,-1.2856,-1.286,-1.2833,-1.2833,-1.2833,0,-1.2723,-1.2732,-1.2739,-1.2745,-1.2749,-1.2758,-1.2764,-1.2764,-1.2771,-1.2779,-1.2786,-1.2796,-1.2804,-1.2821,-1.2824,-1.2834,-1.2832,-1.2844,-1.2834,-1.2833,-1.2832,-1.2831,-1.2832,-1.2845,-1.2845,-1.2846,-1.2846,0,-1.2747,-1.2748,-1.2756,-1.2765,-1.2772,-1.2779,-1.2786,-1.2791,-1.2792,-1.2799,-1.281,-1.2816,-1.2828,-1.2838,-1.2848,-1.2852,-1.2849,-1.2849,-1.2852,-1.2851,-1.285,-1.285,-1.2818,-1.2848,-1.2848,-1.2848,-1.2848,-1.2847,-1.2764,-1.2772,-1.2779,-1.2788,-1.2793,-1.28,-1.2807,-1.2811,-1.2819,-1.2829,-1.2829,-1.2841,-1.2847,-1.286,-1.2864,-1.2873,-1.287,-1.2874,-1.2875,-1.2875,-1.2876,-1.2849,-1.2875,-1.2875,-1.2875,-1.2875,-1.2875,0,-1.2788,-1.2792,-1.2801,-1.281,-1.2818,-1.2815,-1.2822,-1.2829,-1.2839,-1.2845,-1.2853,-1.2865,-1.2875,-1.288,-1.2889,-1.2896,-1.2895,-1.2898,-1.2897,-1.2898,-1.2879,-1.2875,-1.2899,-1.2899,-1.2899,-1.2899,-1.2899,-1.2899,-1.2802,-1.2815,-1.2816,-1.2832,-1.2836,-1.2847,-1.2851,-1.2857,-1.2862,-1.2876,-1.2884,-1.2887,-1.2892,-1.2903,-1.2912,-1.2913,-1.2916,-1.292,-1.292,-1.2902,-1.29,-1.2897,-1.2894,-1.2921,-1.2921,-1.2939,-1.2939,-1.2939]},{"header":{"parameterUnit":"m.s-1","parameterCategory":1,"la1":30.2991,"la2":30.254,"lo1":-89.0895,"lo2":-89.0444,"dy":0.0017,"dx":0.0017,"nx":28,"ny":28,"refTime":"2024-05-07T21:00:00:Z","depth":0,"parameterNumber":3,"parameterNumberName":"V-component_of_WINDS"},"data":[0,0,0,0,0,0,0,0,0,0,0,0,0,0,0,0,0,0,0,0,0,0,0,0,0,0,0,0,0,0,0,0,0,0,0,0,0,0,0,0,0,0,0,0,0,0,0,0,0,0,0,0,0,0,0,0,0,0,6.3267,6.3268,0,6.336,6.3361,6.3362,6.3389,6.3388,6.3388,6.3387,6.3479,6.3481,6.3484,0,0,0,0,0,0,0,0,0,0,0,0,0,6.311,6.3113,6.3267,6.3268,6.3269,6.336,6.3361,6.3362,6.3389,6.3388,6.3388,6.3387,6.3478,6.3481,6.3485,0,0,0,0,0,0,0,0,0,0,0,0,0,6.3188,6.3114,6.3267,6.3293,6.3297,6.336,6.3361,6.3363,6.3389,6.3388,6.3388,6.3387,6.3477,6.3481,6.3485,6.3527,0,0,6.3498,6.35,0,0,0,0,0,0,0,0,6.3183,6.3194,6.3288,6.3292,6.3296,6.3362,6.3339,6.3418,6.3389,6.3354,6.3387,6.3387,6.344,6.3447,6.3466,6.3531,6.3535,6.3499,6.3501,6.3503,6.3504,0,0,0,0,0,0,0,6.3178,6.319,6.3304,6.329,6.3294,6.33,6.331,6.3354,6.34,6.3357,6.3359,6.337,6.3442,6.3462,6.3469,6.3536,6.3499,6.3502,6.3505,6.3507,6.3643,6.3643,0,0,0,0,0,0,6.3169,6.3185,6.3301,6.3306,6.3237,6.3304,6.3315,6.3341,6.34,6.3408,6.3371,6.3371,6.3455,6.3464,6.3472,6.3527,6.3503,6.3507,6.351,6.3642,6.3643,6.3644,0,0,0,0,0,0,6.3165,6.3179,6.3297,6.3247,6.3262,6.3307,6.3337,6.3344,6.3364,6.341,6.3418,6.3383,6.3455,6.3466,6.3514,6.353,6.3509,6.3513,6.364,6.3642,6.3643,6.3635,0,0,0,0,0,0,6.316,6.3177,6.3194,6.3247,6.3265,6.3338,6.3338,6.3346,6.3372,6.3373,6.3424,6.3431,6.3455,6.3507,6.3518,6.3536,6.3516,6.3639,6.3641,6.3643,6.3634,6.3636,6.3638,0,0,0,0,0,6.3155,6.3186,6.3194,6.3208,6.3286,6.3338,6.3349,6.3377,6.3373,6.339,6.342,6.343,6.3527,6.3512,6.3524,6.3543,6.3638,6.364,6.3643,6.3633,6.3635,6.3637,0,0,0,0,0,0,6.3131,6.3193,6.3203,6.3253,6.329,6.3343,6.3365,6.3378,6.3416,6.3416,6.3448,6.3459,6.3505,6.3529,6.3511,6.3588,6.3583,6.3587,6.3571,6.3574,6.3576,6.3569,6.352,0,0,0,0,0,6.3132,6.317,6.3222,6.3261,6.3279,6.3319,6.3342,6.3361,6.3401,6.3417,6.345,6.3487,6.3527,6.3551,6.359,6.3638,6.365,6.3657,6.3659,6.366,6.3664,6.3694,6.3698,6.3651,6.3651,6.3651,0,0,6.3133,6.3172,6.3194,6.3257,6.3288,6.3327,6.3332,6.3371,6.3401,6.3422,6.347,6.3496,6.354,6.3589,6.3612,6.361,6.368,6.3663,6.3664,6.3667,6.3697,6.3701,6.3705,6.3653,6.3653,6.3652,0,0,6.3156,6.3189,6.3226,6.3259,6.3307,6.3334,6.3343,6.3394,6.3413,6.3462,6.348,6.3515,6.3581,6.3612,6.3637,6.3675,6.3686,6.3687,6.3696,6.3725,6.3729,6.3732,6.3748,6.3752,6.369,6.369,6.369,0,6.3152,6.3212,6.3243,6.3284,6.3311,6.3335,6.3373,6.3402,6.346,6.3479,6.3476,6.3563,6.3593,6.3651,6.3661,6.3679,6.3691,6.3681,6.3726,6.373,6.3733,6.3748,6.3754,6.369,6.369,6.369,6.369,0,6.3204,6.3246,6.327,6.3328,6.3358,6.3397,6.3434,6.3461,6.3478,6.3505,6.3556,6.3595,6.3643,6.3658,6.3673,6.3719,6.3717,6.372,6.3715,6.3737,6.3752,6.3758,6.369,6.369,6.369,6.369,0,0,6.3213,6.3291,6.3299,6.3327,6.3384,6.3416,6.3456,6.3505,6.3529,6.3568,6.3604,6.3661,6.3665,6.3693,6.3713,6.3738,6.3769,6.3738,6.374,6.3744,6.3823,6.3821,6.3827,6.3776,6.3777,6.3778,6.382,0,6.3244,6.3319,6.335,6.341,6.345,6.3474,6.351,6.3548,6.3575,6.3612,6.3642,6.3683,6.3684,6.3702,6.3728,6.3759,6.3785,6.3757,6.381,6.3811,6.3799,6.3834,6.3832,6.3869,6.3826,6.3827,6.3827,0,6.3289,6.3332,6.3397,6.3452,6.347,6.3501,6.355,6.3585,6.363,6.3648,6.3682,6.3701,6.3745,6.3737,6.3799,6.3779,6.3803,6.3822,6.3824,6.383,6.3821,6.3843,6.3881,6.3887,6.3836,6.3836,6.3835,0,6.3291,6.3365,6.3414,6.3437,6.3502,6.3524,6.3552,6.3596,6.3624,6.3667,6.3686,6.3732,6.3757,6.3793,6.3824,6.3816,6.3884,6.3878,6.39,6.39,6.3913,6.3912,6.3957,6.3927,6.3927,6.3927,6.3927,0,6.3323,6.3362,6.3416,6.3446,6.3492,6.3527,6.357,6.36,6.364,6.3676,6.37,6.3733,6.3773,6.3811,6.3836,6.3885,6.3895,6.3911,6.3918,6.391,6.3908,6.3926,6.3925,6.3929,6.3928,6.3928,6.3928,0,6.3332,6.337,6.3426,6.3484,6.3499,6.353,6.358,6.361,6.3639,6.3685,6.3698,6.3744,6.3791,6.3826,6.3886,6.3903,6.3955,6.3961,6.3941,6.3944,6.3965,6.3963,6.4024,6.4034,6.3996,6.3996,6.3997,0,6.335,6.3381,6.3443,6.3471,6.3499,6.3542,6.3572,6.3609,6.3639,6.3695,6.3719,6.3768,6.381,6.3884,6.3922,6.3969,6.3977,6.3995,6.3984,6.3976,6.3979,6.3977,6.3982,6.3997,6.3997,6.3997,6.3997,0,6.3378,6.3396,6.3439,6.3491,6.3526,6.3568,6.3609,6.363,6.3674,6.3707,6.3757,6.3789,6.3853,6.3902,6.3954,6.3982,6.3997,6.4001,6.4009,6.4001,6.3989,6.3998,6.3946,6.3999,6.3999,6.3999,6.3999,6.3998,6.3393,6.3423,6.3473,6.3521,6.3557,6.3596,6.3629,6.3663,6.3706,6.3762,6.3781,6.3833,6.3879,6.3951,6.398,6.4021,6.4021,6.4032,6.4035,6.4037,6.4038,6.3982,6.403,6.403,6.403,6.403,6.403,0,6.3424,6.3458,6.3502,6.3561,6.36,6.3613,6.366,6.3691,6.3737,6.378,6.3822,6.388,6.3929,6.3972,6.4023,6.4048,6.4056,6.406,6.4059,6.4065,6.4034,6.4023,6.4052,6.4052,6.4052,6.4052,6.4052,6.4052,6.3444,6.3497,6.3521,6.3592,6.3626,6.3679,6.3705,6.3741,6.3776,6.3841,6.3883,6.3911,6.3955,6.401,6.4055,6.4067,6.4085,6.4087,6.41,6.407,6.4067,6.4065,6.4054,6.409,6.409,6.4129,6.4129,6.4129]}]]